Location: TAAA CAC
(31.8680°N, 109.5150°W)
Time: 21:25:08
(UTC-07:00)

BlueWalker 3 - Pass Details

Date: 16 March 2026
Orbit: 449 x 457 km, 53.2° (Epoch: 20 April)

Event Time Altitude Azimuth Distance (km) Brightness Sun altitude
Exits shadow 05:28:46 - 326° (NNW) 2,181 4.9 -13.1°
Reaches altitude 10° 05:30:17 10° 333° (NNW) 1,593 4.3 -12.8°
Maximum altitude 05:33:39 38° 43° (NE) 713 3.2 -12.1°
Drops below altitude 10° 05:37:00 10° 113° (ESE) 1,582 5.5 -11.4°
Sets 05:39:13 0° 121° (ESE) 2,450 6.4 -10.9°
